Hourly Data Report for September 11, 2018

TORONTO CITY
ONTARIO
Current Station Operator: ECCC - MSC

43°40'00.000" N
79°24'00.000" W
112.50 m
6158355
71508
XTO

Download Data

Hourly Data (September 2018)
Hourly Data Report for September 11, 2018
TIME
LST
Temp Definition
°C
Dew Point Definition
°C
Rel Hum Definition
%
Precip. Amount Definition
mm

Wind Dir Definition
10's deg

Wind Spd Definition
km/h
Visibility Definition
km
Stn Press Definition
kPa
Hmdx Definition


Wind Chill Definition


Weather Definition


00:00 16.5 15.2 92 0.0 LegendMM LegendMM   100.20     LegendNANA
01:00 16.7 15.3 92 0.0 LegendMM LegendMM   100.22     LegendNANA
02:00 16.6 15.2 91 0.0 LegendMM LegendMM   100.22     LegendNANA
03:00 16.4 14.9 91 0.0 LegendMM LegendMM   100.25     LegendNANA
04:00 15.7 14.1 90 0.0 LegendMM LegendMM   100.32     LegendNANA
05:00 15.6 13.8 89 0.0 LegendMM LegendMM   100.37     LegendNANA
06:00 15.3 13.4 88 0.0 LegendMM LegendMM   100.44     LegendNANA
07:00 15.7 13.4 86 0.0 LegendMM LegendMM   100.53     LegendNANA
08:00 16.0 12.9 82 0.0 LegendMM LegendMM   100.59     LegendNANA
09:00 17.2 13.1 77 0.0 LegendMM LegendMM   100.63     LegendNANA
10:00 17.8 12.9 73 0.0 LegendMM LegendMM   100.70     LegendNANA
11:00 18.8 13.0 69 0.0 LegendMM LegendMM   100.76     LegendNANA
12:00 19.3 12.7 66 0.0 LegendMM LegendMM   100.77     LegendNANA
13:00 19.5 12.8 65 0.0 LegendMM LegendMM   100.80     LegendNANA
14:00 20.0 13.1 65 0.0 LegendMM LegendMM   100.80     LegendNANA
15:00 19.9 13.1 65 0.0 LegendMM LegendMM   100.79     LegendNANA
16:00 20.0 12.6 63 0.0 LegendMM LegendMM   100.79     LegendNANA
17:00 19.9 13.7 67 0.0 LegendMM LegendMM   100.80     LegendNANA
18:00 18.7 13.5 72 0.0 LegendMM LegendMM   100.81     LegendNANA
19:00 17.5 13.7 78 0.0 LegendMM LegendMM   100.85     LegendNANA
20:00 17.3 14.0 81 0.0 LegendMM LegendMM   100.90     LegendNANA
21:00 17.9 14.2 79 0.0 LegendMM LegendMM   100.95     LegendNANA
22:00 18.5 14.7 79 0.0 LegendMM LegendMM   100.94     LegendNANA
23:00 17.5 13.4 77 0.0 LegendMM LegendMM   100.98     LegendNANA

Notes on Data Quality.

Legend

  • E = Estimated
  • M = Missing
  • NA = Not Available*
  • [empty] = Indicates an unobserved value
Date modified: